| time (UTC) | temp F | wind direction | speed MPH | gust MPH | rain 1hr in | rain 24hr in | rain mn in | humidity % | barometer mb |
| 20260503221550 | 67 | 313 | 11.0 | 14.0 | 0.00 | 0.00 | 0.00 | 57 | 1011.6 |
| 20260503221047 | 67 | 341 | 7.0 | 13.0 | 0.00 | 0.00 | 0.00 | 58 | 1011.8 |
| 20260503220543 | 66 | 333 | 12.0 | 14.0 | 0.00 | 0.00 | 0.00 | 58 | 1011.7 |
| 20260503220040 | 65 | 332 | 9.0 | 11.0 | 0.00 | 0.00 | 0.00 | 59 | 1011.8 |
| 20260503215537 | 65 | 331 | 8.0 | 10.0 | 0.00 | 0.00 | 0.00 | 59 | 1011.8 |
| 20260503215034 | 65 | 349 | 10.0 | 11.0 | 0.00 | 0.00 | 0.00 | 58 | 1011.8 |
| 20260503214533 | 66 | 358 | 8.0 | 9.0 | 0.00 | 0.00 | 0.00 | 58 | 1011.8 |
| 20260503214029 | 66 | 329 | 9.0 | 13.0 | 0.00 | 0.00 | 0.00 | 57 | 1011.9 |
| 20260503213527 | 67 | 356 | 7.0 | 11.0 | 0.00 | 0.00 | 0.00 | 55 | 1011.7 |
| 20260503213024 | 68 | 353 | 11.0 | 13.0 | 0.00 | 0.00 | 0.00 | 54 | 1011.8 |
| 20260503212521 | 69 | 327 | 8.0 | 11.0 | 0.00 | 0.00 | 0.00 | 52 | 1011.9 |
| 20260503212018 | 70 | 339 | 8.0 | 11.0 | 0.00 | 0.00 | 0.00 | 51 | 1011.8 |
| 20260503211515 | 70 | 3 | 8.0 | 13.0 | 0.00 | 0.00 | 0.00 | 52 | 1011.9 |
| 20260503211011 | 69 | 7 | 9.0 | 11.0 | 0.00 | 0.00 | 0.00 | 52 | 1011.9 |
| 20260503210508 | 69 | 323 | 9.0 | 10.0 | 0.00 | 0.00 | 0.00 | 54 | 1011.7 |
| 20260503210003 | 69 | 338 | 8.0 | 10.0 | 0.00 | 0.00 | 0.00 | 53 | 1012.1 |
| 20260503205500 | 69 | 354 | 9.0 | 11.0 | 0.00 | 0.00 | 0.00 | 53 | 1011.9 |
| 20260503204956 | 68 | 341 | 12.0 | 14.0 | 0.00 | 0.00 | 0.00 | 53 | 1012.0 |
| 20260503204454 | 69 | 352 | 10.0 | 13.0 | 0.00 | 0.00 | 0.00 | 53 | 1012.0 |
| 20260503203950 | 70 | 324 | 9.0 | 13.0 | 0.00 | 0.00 | 0.00 | 52 | 1012.0 |
| 20260503203448 | 71 | 343 | 10.0 | 13.0 | 0.00 | 0.00 | 0.00 | 50 | 1012.1 |
| 20260503202944 | 71 | 11 | 6.0 | 7.0 | 0.00 | 0.00 | 0.00 | 49 | 1012.2 |
| 20260503202443 | 72 | 348 | 11.0 | 13.0 | 0.00 | 0.00 | 0.00 | 47 | 1012.3 |
| 20260503201941 | 79 | 328 | 11.0 | 15.0 | 0.00 | 0.00 | 0.00 | 40 | 1012.3 |
| 20260503201438 | 82 | 36 | 8.0 | 14.0 | 0.00 | 0.00 | 0.00 | 32 | 1012.2 |
| 20260503200935 | 82 | 22 | 5.0 | 7.0 | 0.00 | 0.00 | 0.00 | 33 | 1012.2 |
| 20260503200431 | 81 | 346 | 5.0 | 7.0 | 0.00 | 0.00 | 0.00 | 34 | 1012.0 |
| 20260503195928 | 82 | 43 | 1.0 | 3.0 | 0.00 | 0.00 | 0.00 | 33 | 1012.2 |
| 20260503195426 | 81 | 54 | 3.0 | 6.0 | 0.00 | 0.00 | 0.00 | 35 | 1012.3 |
| 20260503194922 | 80 | 64 | 9.0 | 13.0 | 0.00 | 0.00 | 0.00 | 35 | 1012.6 |
| 20260503194419 | 80 | 354 | 7.0 | 13.0 | 0.00 | 0.00 | 0.00 | 35 | 1012.5 |
| 20260503193914 | 80 | 356 | 4.0 | 6.0 | 0.00 | 0.00 | 0.00 | 35 | 1012.4 |
| 20260503193410 | 80 | 356 | 4.0 | 8.0 | 0.00 | 0.00 | 0.00 | 37 | 1012.4 |
| 20260503192906 | 80 | 358 | 6.0 | 8.0 | 0.00 | 0.00 | 0.00 | 36 | 1012.5 |
| 20260503192401 | 81 | 9 | 5.0 | 10.0 | 0.00 | 0.00 | 0.00 | 37 | 1012.5 |
| 20260503191858 | 81 | 359 | 3.0 | 7.0 | 0.00 | 0.00 | 0.00 | 37 | 1012.5 |
| 20260503191355 | 81 | 14 | 1.0 | 4.0 | 0.00 | 0.00 | 0.00 | 38 | 1012.6 |
| 20260503190852 | 80 | 6 | 0.0 | 0.0 | 0.00 | 0.00 | 0.00 | 39 | 1012.7 |
| 20260503190349 | 79 | 55 | 1.0 | 3.0 | 0.00 | 0.00 | 0.00 | 39 | 1012.6 |
| 20260503185846 | 79 | 44 | 0.0 | 0.0 | 0.00 | 0.00 | 0.00 | 39 | 1012.6 |
| 20260503185342 | 79 | 31 | 4.0 | 6.0 | 0.00 | 0.00 | 0.00 | 39 | 1012.8 |
| 20260503184842 | 79 | 357 | 3.0 | 4.0 | 0.00 | 0.00 | 0.00 | 39 | 1012.7 |
| 20260503184338 | 79 | 57 | 0.0 | 3.0 | 0.00 | 0.00 | 0.00 | 39 | 1013.0 |
| 20260503183834 | 79 | 334 | 0.0 | 1.0 | 0.00 | 0.00 | 0.00 | 40 | 1012.8 |
| 20260503183332 | 79 | 7 | 4.0 | 8.0 | 0.00 | 0.00 | 0.00 | 41 | 1012.9 |
| 20260503182829 | 78 | 355 | 5.0 | 9.0 | 0.00 | 0.00 | 0.00 | 45 | 1013.0 |
| 20260503182328 | 77 | 5 | 3.0 | 7.0 | 0.00 | 0.00 | 0.00 | 46 | 1013.0 |
| 20260503181825 | 77 | 3 | 4.0 | 4.0 | 0.00 | 0.00 | 0.00 | 46 | 1013.1 |
| 20260503181322 | 78 | 344 | 0.0 | 1.0 | 0.00 | 0.00 | 0.00 | 48 | 1013.0 |
| 20260503180818 | 77 | 61 | 0.0 | 0.0 | 0.00 | 0.00 | 0.00 | 49 | 1013.1 |
| 20260503180316 | 77 | 5 | 2.0 | 4.0 | 0.00 | 0.00 | 0.00 | 48 | 1013.2 |
| 20260503175812 | 78 | 1 | 4.0 | 6.0 | 0.00 | 0.00 | 0.00 | 47 | 1013.0 |
| 20260503175311 | 78 | 348 | 0.0 | 0.0 | 0.00 | 0.00 | 0.00 | 46 | 1013.1 |
| 20260503174806 | 77 | 36 | 0.0 | 0.0 | 0.00 | 0.00 | 0.00 | 47 | 1013.0 |
| 20260503174304 | 77 | 353 | 0.0 | 0.0 | 0.00 | 0.00 | 0.00 | 49 | 1013.1 |
| 20260503173759 | 76 | 86 | 0.0 | 0.0 | 0.00 | 0.00 | 0.00 | 50 | 1013.1 |
| 20260503173255 | 76 | 56 | 1.0 | 2.0 | 0.00 | 0.00 | 0.00 | 51 | 1013.2 |
| 20260503172752 | 75 | 28 | 2.0 | 4.0 | 0.00 | 0.00 | 0.00 | 50 | 1013.1 |
| 20260503172250 | 75 | 41 | 2.0 | 4.0 | 0.00 | 0.00 | 0.00 | 49 | 1013.2 |
| 20260503171746 | 75 | 69 | 6.0 | 8.0 | 0.00 | 0.00 | 0.00 | 46 | 1013.4 |
| 20260503171243 | 74 | 116 | 0.0 | 0.0 | 0.00 | 0.00 | 0.00 | 52 | 1013.2 |
| 20260503170740 | 74 | 57 | 0.0 | 2.0 | 0.00 | 0.00 | 0.00 | 54 | 1013.3 |
| 20260503170237 | 74 | 0 | 0.0 | 0.0 | 0.00 | 0.00 | 0.00 | 51 | 1013.3 |
| 20260503160159 | 66 | 48 | 2.0 | 3.0 | 0.00 | 0.00 | 0.00 | 74 | 1013.5 |
| 20260503150629 | 60 | 41 | 2.0 | 4.0 | 0.00 | 0.00 | 0.00 | 85 | 1013.6 |
| 20260503150125 | 59 | 78 | 0.0 | 0.0 | 0.00 | 0.00 | 0.00 | 86 | 1013.7 |
| 20260503131019 | 52 | 84 | 0.0 | 0.0 | 0.00 | 0.00 | 0.00 | 94 | 1013.2 |
| 20260503130516 | 52 | 42 | 0.0 | 0.0 | 0.00 | 0.00 | 0.00 | 94 | 1013.4 |
| 20260503110412 | 50 | 53 | 0.0 | 0.0 | 0.00 | 0.00 | 0.00 | 95 | 1013.8 |
| 20260503090303 | 52 | 72 | 0.0 | 0.0 | 0.00 | 0.00 | 0.00 | 94 | 1014.3 |
| 20260503081231 | 50 | 45 | 0.0 | 0.0 | 0.00 | 0.00 | 0.00 | 94 | 1014.5 |
| 20260503080726 | 50 | 50 | 0.0 | 0.0 | 0.00 | 0.00 | 0.00 | 94 | 1014.5 |
| 20260503080224 | 50 | 76 | 0.0 | 0.0 | 0.00 | 0.00 | 0.00 | 94 | 1014.5 |
| 20260503072700 | 50 | 77 | 0.0 | 0.0 | 0.00 | 0.00 | 0.00 | 94 | 1014.5 |
| 20260503072157 | 49 | 61 | 0.0 | 0.0 | 0.00 | 0.00 | 0.00 | 94 | 1014.4 |
| 20260503071654 | 49 | 15 | 0.0 | 0.0 | 0.00 | 0.00 | 0.00 | 93 | 1014.5 |
| 20260503071150 | 49 | 15 | 0.0 | 0.0 | 0.00 | 0.00 | 0.00 | 93 | 1014.7 |
| 20260503070647 | 49 | 15 | 0.0 | 0.0 | 0.00 | 0.00 | 0.00 | 93 | 1014.6 |
| 20260503070146 | 50 | 15 | 0.0 | 0.0 | 0.00 | 0.00 | 0.00 | 93 | 1014.6 |
| 20260503060109 | 51 | 42 | 0.0 | 0.0 | 0.00 | 0.00 | 0.00 | 93 | 1014.7 |
| 20260503055101 | 51 | 42 | 0.0 | 0.0 | 0.00 | 0.00 | 0.00 | 93 | 1014.9 |
| 20260503054557 | 51 | 83 | 0.0 | 0.0 | 0.00 | 0.00 | 0.00 | 93 | 1014.9 |
| 20260503054054 | 51 | 64 | 0.0 | 0.0 | 0.00 | 0.00 | 0.00 | 93 | 1014.9 |
| 20260503053552 | 51 | 92 | 0.0 | 0.0 | 0.00 | 0.00 | 0.00 | 93 | 1014.9 |
| 20260503053050 | 51 | 79 | 0.0 | 0.0 | 0.00 | 0.00 | 0.00 | 93 | 1015.0 |
| 20260503052546 | 51 | 65 | 0.0 | 0.0 | 0.00 | 0.00 | 0.00 | 92 | 1015.1 |
| 20260503052042 | 51 | 71 | 0.0 | 0.0 | 0.00 | 0.00 | 0.00 | 93 | 1015.0 |
| 20260503051538 | 51 | 51 | 0.0 | 0.0 | 0.00 | 0.00 | 0.00 | 92 | 1015.1 |
| 20260503051036 | 51 | 42 | 0.0 | 0.0 | 0.00 | 0.00 | 0.00 | 92 | 1014.9 |
| 20260503050531 | 50 | 43 | 0.0 | 0.0 | 0.00 | 0.00 | 0.00 | 92 | 1014.9 |
| 20260503050029 | 50 | 52 | 0.0 | 0.0 | 0.00 | 0.00 | 0.00 | 92 | 1014.9 |
| 20260503045526 | 50 | 86 | 0.0 | 0.0 | 0.00 | 0.00 | 0.00 | 92 | 1014.9 |
| 20260503045024 | 50 | 70 | 0.0 | 0.0 | 0.00 | 0.00 | 0.00 | 92 | 1014.9 |
| 20260503044520 | 50 | 60 | 0.0 | 0.0 | 0.00 | 0.00 | 0.00 | 92 | 1014.7 |
| 20260503044018 | 50 | 60 | 0.0 | 0.0 | 0.00 | 0.00 | 0.00 | 92 | 1014.8 |
| 20260503043514 | 50 | 53 | 0.0 | 0.0 | 0.00 | 0.00 | 0.00 | 92 | 1014.6 |
| 20260503043010 | 51 | 74 | 0.0 | 0.0 | 0.00 | 0.00 | 0.00 | 92 | 1014.8 |
| 20260503042507 | 51 | 68 | 0.0 | 0.0 | 0.00 | 0.00 | 0.00 | 92 | 1014.6 |
| 20260503042003 | 51 | 3 | 0.0 | 0.0 | 0.00 | 0.00 | 0.00 | 92 | 1014.7 |
| 20260503041500 | 51 | 11 | 0.0 | 0.0 | 0.00 | 0.00 | 0.00 | 92 | 1014.3 |
| 20260503040958 | 51 | 16 | 0.0 | 0.0 | 0.00 | 0.00 | 0.00 | 92 | 1014.3 |
| 20260503040455 | 51 | 7 | 0.0 | 0.0 | 0.00 | 0.00 | 0.00 | 91 | 1014.5 |
| 20260503035952 | 51 | 0 | 0.0 | 0.0 | 0.00 | 0.00 | 0.00 | 91 | 1014.5 |
| 20260503035449 | 51 | 327 | 0.0 | 0.0 | 0.00 | 0.00 | 0.00 | 91 | 1014.4 |
| 20260503034947 | 51 | 13 | 0.0 | 0.0 | 0.00 | 0.00 | 0.00 | 91 | 1014.4 |
| 20260503034444 | 51 | 354 | 1.0 | 4.0 | 0.00 | 0.00 | 0.00 | 91 | 1014.3 |
| 20260503033941 | 51 | 11 | 0.0 | 0.0 | 0.00 | 0.00 | 0.00 | 91 | 1014.4 |
| 20260503033438 | 51 | 19 | 0.0 | 0.0 | 0.00 | 0.00 | 0.00 | 91 | 1014.1 |
| 20260503032936 | 51 | 355 | 4.0 | 4.0 | 0.00 | 0.00 | 0.00 | 91 | 1014.1 |
| 20260503032435 | 51 | 359 | 2.0 | 4.0 | 0.00 | 0.00 | 0.00 | 91 | 1014.3 |
| 20260503031932 | 51 | 10 | 2.0 | 4.0 | 0.00 | 0.00 | 0.00 | 90 | 1014.4 |
| 20260503031429 | 51 | 356 | 0.0 | 1.0 | 0.00 | 0.00 | 0.00 | 90 | 1014.1 |
| 20260503030926 | 51 | 353 | 4.0 | 7.0 | 0.00 | 0.00 | 0.00 | 90 | 1014.3 |
| 20260503030422 | 51 | 339 | 3.0 | 4.0 | 0.00 | 0.00 | 0.00 | 90 | 1014.1 |
| 20260503025919 | 51 | 328 | 4.0 | 6.0 | 0.00 | 0.00 | 0.00 | 90 | 1014.1 |
| 20260503025416 | 51 | 335 | 2.0 | 3.0 | 0.00 | 0.00 | 0.00 | 90 | 1014.2 |
| 20260503024914 | 52 | 342 | 3.0 | 6.0 | 0.00 | 0.00 | 0.00 | 90 | 1014.2 |
| 20260503024410 | 51 | 337 | 1.0 | 2.0 | 0.00 | 0.00 | 0.00 | 90 | 1014.0 |
| 20260503023908 | 51 | 6 | 0.0 | 0.0 | 0.00 | 0.00 | 0.00 | 89 | 1014.1 |
| 20260503023405 | 52 | 16 | 1.0 | 2.0 | 0.00 | 0.00 | 0.00 | 89 | 1014.1 |
| 20260503022902 | 52 | 341 | 6.0 | 7.0 | 0.00 | 0.00 | 0.00 | 89 | 1014.2 |
| 20260503022401 | 52 | 350 | 5.0 | 7.0 | 0.00 | 0.00 | 0.00 | 89 | 1014.2 |
| 20260503021858 | 52 | 346 | 4.0 | 6.0 | 0.00 | 0.00 | 0.00 | 89 | 1013.9 |
| 20260503021354 | 52 | 351 | 0.0 | 2.0 | 0.00 | 0.00 | 0.00 | 89 | 1014.1 |
| 20260503020851 | 52 | 343 | 6.0 | 8.0 | 0.00 | 0.00 | 0.00 | 88 | 1014.1 |
| 20260503020349 | 52 | 348 | 4.0 | 6.0 | 0.00 | 0.00 | 0.00 | 88 | 1014.2 |
| 20260503015845 | 52 | 358 | 3.0 | 7.0 | 0.00 | 0.00 | 0.00 | 88 | 1014.3 |
| 20260503015342 | 52 | 344 | 1.0 | 2.0 | 0.00 | 0.00 | 0.00 | 88 | 1014.5 |
| 20260503014838 | 52 | 18 | 4.0 | 4.0 | 0.00 | 0.00 | 0.00 | 88 | 1014.4 |
| 20260503014336 | 53 | 350 | 4.0 | 9.0 | 0.00 | 0.00 | 0.00 | 88 | 1014.3 |
| 20260503013833 | 53 | 1 | 2.0 | 3.0 | 0.00 | 0.00 | 0.00 | 87 | 1014.4 |
| 20260503013330 | 53 | 11 | 4.0 | 6.0 | 0.00 | 0.00 | 0.00 | 87 | 1014.4 |
| 20260503012827 | 53 | 336 | 6.0 | 8.0 | 0.00 | 0.00 | 0.00 | 87 | 1014.6 |
| 20260503012325 | 53 | 352 | 5.0 | 8.0 | 0.00 | 0.00 | 0.00 | 87 | 1014.5 |
| 20260503011822 | 53 | 348 | 4.0 | 7.0 | 0.00 | 0.00 | 0.00 | 86 | 1014.5 |
| 20260503011319 | 53 | 349 | 6.0 | 8.0 | 0.00 | 0.00 | 0.00 | 86 | 1014.6 |
| 20260503010815 | 53 | 340 | 4.0 | 6.0 | 0.00 | 0.00 | 0.00 | 86 | 1014.5 |
| 20260503010313 | 53 | 5 | 6.0 | 8.0 | 0.00 | 0.00 | 0.00 | 85 | 1014.4 |
| 20260503005809 | 54 | 336 | 7.0 | 10.0 | 0.00 | 0.00 | 0.00 | 85 | 1014.2 |
| 20260503005307 | 54 | 320 | 7.0 | 11.0 | 0.00 | 0.00 | 0.00 | 84 | 1014.4 |
| 20260503004802 | 55 | 325 | 5.0 | 9.0 | 0.00 | 0.00 | 0.00 | 83 | 1014.5 |
| 20260503004301 | 56 | 324 | 4.0 | 8.0 | 0.00 | 0.00 | 0.00 | 83 | 1014.4 |
| 20260503003758 | 56 | 338 | 6.0 | 7.0 | 0.00 | 0.00 | 0.00 | 83 | 1014.2 |
| 20260503003254 | 56 | 320 | 4.0 | 7.0 | 0.00 | 0.00 | 0.00 | 83 | 1014.4 |
| 20260503002751 | 57 | 356 | 4.0 | 6.0 | 0.00 | 0.00 | 0.00 | 82 | 1014.2 |
| 20260503002248 | 56 | 334 | 5.0 | 7.0 | 0.00 | 0.00 | 0.00 | 83 | 1014.4 |
| 20260503001744 | 57 | 316 | 5.0 | 8.0 | 0.00 | 0.00 | 0.00 | 82 | 1014.6 |
| 20260503001240 | 57 | 315 | 3.0 | 6.0 | 0.00 | 0.00 | 0.00 | 81 | 1014.4 |
| 20260503000739 | 57 | 355 | 2.0 | 4.0 | 0.00 | 0.00 | 0.00 | 81 | 1014.6 |
| 20260503000236 | 58 | 326 | 8.0 | 11.0 | 0.00 | 0.00 | 0.00 | 81 | 1014.4 |
| 20260502235733 | 57 | 311 | 4.0 | 7.0 | 0.00 | 0.00 | 0.00 | 82 | 1014.5 |
| 20260502235231 | 58 | 328 | 5.0 | 8.0 | 0.00 | 0.00 | 0.00 | 81 | 1014.5 |
| 20260502234726 | 57 | 321 | 3.0 | 6.0 | 0.00 | 0.00 | 0.00 | 82 | 1014.4 |
| 20260502234225 | 58 | 331 | 5.0 | 9.0 | 0.00 | 0.00 | 0.00 | 81 | 1014.5 |
| 20260502233720 | 58 | 325 | 6.0 | 9.0 | 0.00 | 0.00 | 0.00 | 81 | 1014.7 |
| 20260502233217 | 58 | 332 | 6.0 | 8.0 | 0.00 | 0.00 | 0.00 | 82 | 1014.7 |
| 20260502232712 | 58 | 328 | 5.0 | 8.0 | 0.00 | 0.00 | 0.00 | 82 | 1014.7 |
| 20260502232210 | 58 | 332 | 4.0 | 9.0 | 0.00 | 0.00 | 0.00 | 82 | 1014.9 |
| 20260502231707 | 58 | 328 | 4.0 | 9.0 | 0.00 | 0.00 | 0.00 | 81 | 1014.9 |
| 20260502231204 | 58 | 0 | 6.0 | 10.0 | 0.00 | 0.00 | 0.00 | 82 | 1015.0 |
| 20260502230703 | 58 | 350 | 7.0 | 10.0 | 0.00 | 0.00 | 0.00 | 82 | 1015.1 |
| 20260502230201 | 58 | 320 | 6.0 | 9.0 | 0.00 | 0.00 | 0.00 | 82 | 1015.1 |
| 20260502225656 | 58 | 343 | 5.0 | 9.0 | 0.00 | 0.00 | 0.00 | 83 | 1015.2 |
| 20260502225154 | 57 | 334 | 6.0 | 8.0 | 0.00 | 0.00 | 0.00 | 83 | 1015.3 |
| 20260502224650 | 57 | 330 | 5.0 | 8.0 | 0.00 | 0.00 | 0.00 | 82 | 1015.3 |
| 20260502224146 | 57 | 328 | 5.0 | 7.0 | 0.00 | 0.00 | 0.00 | 83 | 1015.5 |
| 20260502223644 | 57 | 341 | 5.0 | 8.0 | 0.00 | 0.00 | 0.00 | 83 | 1015.6 |
| 20260502223142 | 57 | 341 | 6.0 | 10.0 | 0.00 | 0.00 | 0.00 | 83 | 1015.7 |
| 20260502222640 | 57 | 319 | 4.0 | 8.0 | 0.00 | 0.00 | 0.00 | 84 | 1015.8 |
| 20260502222136 | 57 | 324 | 4.0 | 7.0 | 0.00 | 0.00 | 0.00 | 84 | 1016.0 |